Arima, Trinidad And Tobago

11:00 AM AST on June 25, 2018 (GMT -0400)
Arima

Weather History for 78970 - December, 2003

Change the Weather History Date:

Monday, December 22, 2003

  Actual Average Record
Temperature  
Mean Temperature 80 °F -  
Max Temperature 87 °F 84 °F - ()
Min Temperature 73 °F 71 °F - ()
Cooling Degree Days 15    
Growing Degree Days 30 (Base 50)    
Moisture  
Dew Point 74 °F    
Average Humidity 82    
Maximum Humidity 100    
Minimum Humidity 55    
Precipitation  
Precipitation 0.00 in 0.12 in - ()
Sea Level Pressure  
Sea Level Pressure 29.92 in    
Wind  
Wind Speed 4 mph ()    
Max Wind Speed 15 mph    
Max Gust Speed -    
Visibility 6.2 miles    
Events      
T = Trace of Precipitation, MM = Missing Value Source: Averaged Metar Reports

Daily Weather History Graph

Daily Weather History Graph

Search for Another Location

Airport or City:

Astronomy

Dec. 22, 2003 Rise Set
Actual Time 6:18 AM AST 5:49 PM AST
Civil Twilight 5:55 AM AST 6:11 PM AST
Nautical Twilight 5:29 AM AST 6:38 PM AST
Astronomical Twilight 5:03 AM AST 7:04 PM AST
Moon 5:21 AM AST (12/22) 5:09 PM AST (12/22)
Length of Visible Light 12h 16m
Length of Day
11h 30m
Waning Crescent, 1% of the Moon is Illuminated
Dec 22
Waning Crescent
Dec 23
New
Dec 30
First Quarter
Jan 7
Full
Jan 15
Last Quarter

Hourly Weather History & Observations

Time (AST) Temp. Heat Index Dew Point Humidity Pressure Visibility Wind Dir Wind Speed Gust Speed Precip Events Conditions
12:00 AM 75.2 °F - 75.2 °F 100% 29.98 in 6.2 mi East 3.5 mph - N/A   Mostly Cloudy
1:00 AM 73.4 °F - 73.4 °F 100% 29.95 in 6.2 mi Calm Calm - N/A   Partly Cloudy
2:00 AM 73.4 °F - 73.4 °F 100% 29.92 in 6.2 mi Calm Calm - N/A   Scattered Clouds
3:00 AM 75.2 °F - 75.2 °F 100% 29.92 in 6.2 mi Calm Calm - N/A   Mostly Cloudy
4:00 AM 75.2 °F - 75.2 °F 100% 29.89 in 6.2 mi Calm Calm - N/A   Mostly Cloudy
5:00 AM 75.2 °F - 73.4 °F 94% 29.92 in 6.2 mi Calm Calm - N/A   Scattered Clouds
6:00 AM 75.2 °F - 73.4 °F 94% 29.92 in 6.2 mi Calm Calm - N/A   Partly Cloudy
7:00 AM 75.2 °F - 75.2 °F 100% 29.95 in 6.2 mi Calm Calm - N/A   Mostly Cloudy
8:00 AM 80.6 °F 86.2 °F 75.2 °F 84% 29.98 in 6.2 mi ENE 4.6 mph - N/A   Mostly Cloudy
9:00 AM 84.2 °F 92.3 °F 75.2 °F 74% 29.98 in 6.2 mi ENE 12.7 mph - N/A   Mostly Cloudy
10:00 AM 86.0 °F 93.4 °F 73.4 °F 66% 29.98 in 6.2 mi ENE 15.0 mph - N/A   Mostly Cloudy
11:00 AM 87.8 °F 93.8 °F 71.6 °F 58% 29.95 in - North - - N/A   Mostly Cloudy
12:00 PM 87.8 °F 92.6 °F 69.8 °F 55% 29.92 in 6.2 mi ENE 12.7 mph - N/A   Mostly Cloudy
1:00 PM 87.8 °F 93.8 °F 71.6 °F 58% 29.89 in 6.2 mi ENE 12.7 mph - N/A   Mostly Cloudy
2:00 PM 86.0 °F 93.4 °F 73.4 °F 66% 29.89 in 6.2 mi ENE 13.8 mph - N/A   Mostly Cloudy
3:00 PM 87.8 °F 95.6 °F 73.4 °F 62% 29.86 in 6.2 mi ENE 13.8 mph - N/A   Mostly Cloudy
4:00 PM 86.0 °F 93.4 °F 73.4 °F 66% 29.86 in 6.2 mi ENE 12.7 mph - N/A   Mostly Cloudy
5:00 PM 84.2 °F 90.9 °F 73.4 °F 70% 29.89 in 6.2 mi ENE 12.7 mph - N/A   Partly Cloudy
6:00 PM 80.6 °F 85.4 °F 73.4 °F 79% 29.89 in 6.2 mi ENE 8.1 mph - N/A   Mostly Cloudy
7:00 PM 78.8 °F - 75.2 °F 89% 29.89 in 6.2 mi ENE 3.5 mph - N/A   Mostly Cloudy
8:00 PM 78.8 °F - 73.4 °F 83% 29.92 in 6.2 mi ENE 3.5 mph - N/A   Mostly Cloudy
9:00 PM 77.0 °F - 73.4 °F 89% 29.92 in 6.2 mi ENE 4.6 mph - N/A   Mostly Cloudy
10:00 PM 77.0 °F - 73.4 °F 89% 29.92 in 6.2 mi Calm Calm - N/A   Mostly Cloudy
11:00 PM 75.2 °F - 73.4 °F 94% 29.92 in 6.2 mi Calm Calm - N/A   Mostly Cloudy